Weather History for Elmira, NY

Change the Weather History Date:

Wednesday, January 2, 2013

  Actual Average Record
Temperature  
Mean Temperature 21 °F -  
Max Temperature 28 °F 34 °F 58 °F (1952)
Min Temperature 14 °F 16 °F -8 °F (1968)
Degree Days  
Heating Degree Days 44    
Moisture  
Dew Point 12 °F    
Average Humidity 73    
Maximum Humidity 86    
Minimum Humidity 51    
Precipitation  
Precipitation 0.00 in - - ()
Sea Level Pressure  
Sea Level Pressure 30.08 in    
Wind  
Wind Speed 3 mph (NW)    
Max Wind Speed 18 mph    
Max Gust Speed 25 mph    
Visibility 8 miles    
Events Snow    
Averages and records for this station are not official NWS values.
T = Trace of Precipitation, MM = Missing Value Source: NWS Daily Summary

Daily Weather History Graph

Daily Weather History Graph

Search for Another Location

Airport:

Trip Planner

Search our weather history database for the weather conditions in past years. The results will help you decide how hot, cold, wet, or windy it might be!

Date:

Astronomy

Jan. 02, 2013 Rise Set
Actual Time 7:36 AM EST 4:47 PM EST
Civil Twilight 7:04 AM EST 5:19 PM EST
Nautical Twilight 6:29 AM EST 5:54 PM EST
Astronomical Twilight 5:55 AM EST 6:28 PM EST
Moon 10:24 PM EST (1/2) 10:11 AM EST (1/2)
Length of Visible Light 10h 14m
Length of Day
9h 11m
Waning Gibbous, 75% of the Moon is Illuminated
Jan 2
Waning Gibbous
Jan 4
Last Quarter
Jan 11
New
Jan 18
First Quarter
Jan 26
Full

Hourly Weather History & Observations

Time (EST) Temp. Windchill Dew Point Humidity Pressure Visibility Wind Dir Wind Speed Gust Speed Precip Events Conditions
12:53 AM 14.0 °F - 9.0 °F 80% 30.04 in 10.0 mi Calm Calm - N/A   Overcast
1:53 AM 14.0 °F 8.2 °F 9.0 °F 80% 30.04 in 10.0 mi ENE 3.5 mph - N/A   Overcast
2:53 AM 15.1 °F 7.7 °F 10.0 °F 80% 30.04 in 10.0 mi NE 4.6 mph - N/A   Overcast
3:53 AM 15.1 °F - 9.0 °F 77% 30.03 in 10.0 mi Calm Calm - N/A   Overcast
4:53 AM 16.0 °F - 10.0 °F 77% 30.02 in 8.0 mi Calm Calm - N/A   Overcast
5:53 AM 16.0 °F - 10.9 °F 81% 30.03 in 9.0 mi Calm Calm - 0.00 in   Overcast
6:53 AM 16.0 °F - 10.9 °F 81% 30.04 in 7.0 mi Calm Calm - 0.00 in   Overcast
7:53 AM 17.1 °F - 12.0 °F 81% 30.07 in 4.0 mi Calm Calm - 0.00 in Snow Light Snow
8:12 AM 17.6 °F - 12.2 °F 79% 30.01 in 2.5 mi Calm Calm - 0.00 in Snow Light Snow
8:21 AM 17.6 °F - 12.2 °F 79% 30.02 in 3.0 mi Calm Calm - 0.00 in Snow Light Snow
8:53 AM 18.0 °F - 12.9 °F 81% 30.09 in 3.0 mi Calm Calm - 0.00 in Snow Light Snow
9:03 AM 17.6 °F - 12.2 °F 79% 30.03 in 2.0 mi Calm Calm - 0.00 in Snow Light Snow
9:48 AM 19.4 °F - 15.8 °F 86% 30.05 in 3.0 mi Calm Calm - 0.00 in Snow Light Snow
10:00 AM 19.4 °F - 15.8 °F 86% 30.05 in 3.0 mi Calm Calm - 0.00 in Snow Light Snow
10:53 AM 23.0 °F 15.8 °F 12.0 °F 63% 30.09 in 10.0 mi West 5.8 mph - 0.00 in   Clear
11:53 AM 25.0 °F 11.3 °F 12.0 °F 58% 30.07 in 10.0 mi West 18.4 mph 25.3 mph N/A   Clear
12:53 PM 26.1 °F 16.8 °F 12.0 °F 55% 30.06 in 10.0 mi WNW 9.2 mph - N/A   Clear
1:53 PM 28.0 °F 17.0 °F 12.9 °F 53% 30.08 in 10.0 mi West 13.8 mph - N/A   Overcast
2:53 PM 28.9 °F 20.4 °F 12.9 °F 51% 30.10 in 10.0 mi West 9.2 mph - N/A   Overcast
3:53 PM 27.0 °F 19.5 °F 12.9 °F 56% 30.12 in 10.0 mi NW 6.9 mph - N/A   Overcast
4:53 PM 26.1 °F 16.2 °F 12.9 °F 58% 30.13 in 10.0 mi WNW 10.4 mph - N/A   Mostly Cloudy
5:53 PM 25.0 °F 20.7 °F 12.9 °F 60% 30.15 in 10.0 mi WNW 3.5 mph - N/A   Overcast
6:53 PM 25.0 °F 17.1 °F 14.0 °F 63% 30.15 in 10.0 mi WNW 6.9 mph - N/A   Overcast
8:49 PM 21.2 °F 13.6 °F 15.8 °F 80% 30.12 in 10.0 mi NNE 5.8 mph - N/A   Overcast
8:53 PM 21.9 °F 14.5 °F 16.0 °F 78% 30.17 in 10.0 mi North 5.8 mph - N/A   Overcast
9:53 PM 19.9 °F 9.3 °F 14.0 °F 78% 30.19 in 9.0 mi NNE 9.2 mph - 0.00 in Snow Light Snow
11:53 PM 19.0 °F 11.1 °F 14.0 °F 81% 30.22 in 5.0 mi East 5.8 mph - 0.00 in Snow Light Snow